This is the latest recevied weather packets stored in our database for station/object LY3FF-10. If no packets are shown the sender has not sent any weather packets the latest 10 day(s).
| Time | Temp. | Humidity | Pressure | Rain* | Wind** | Luminosity | Snow |
|---|---|---|---|---|---|---|---|
| 1788352610 | 29.44° C | 64% | 994.4 hPa | - | - | - | - |
| 1788351788 | 21.11° C | 63% | 994.2 hPa | - | - | - | - |
| 1788350935 | 20.56° C | 69% | 994.2 hPa | - | - | - | - |
| 1788350208 | 21.67° C | 72% | 994.3 hPa | - | - | - | - |
| 1788349344 | 21.67° C | 71% | 994.4 hPa | - | - | - | - |
| 1788348510 | 24.44° C | 66% | 994.3 hPa | - | - | - | - |
| 1788347620 | 20° C | 67% | 994.3 hPa | - | - | - | - |
| 1788346900 | 20.56° C | 65% | 994.2 hPa | - | - | - | - |
| 1788346150 | 20° C | 70% | 994.1 hPa | - | - | - | - |
| 1788345433 | 28.33° C | 69% | 994.3 hPa | - | - | - | - |
| 1788344654 | 28.33° C | 67% | 994.3 hPa | - | - | - | - |
| 1788343870 | 19.44° C | 72% | 994.3 hPa | - | - | - | - |
| 1788342982 | 19.44° C | 73% | 994.3 hPa | - | - | - | - |
| 1788342240 | 25° C | 78% | 994.2 hPa | - | - | - | - |
| 1788341360 | 18.33° C | 80% | 994.4 hPa | - | - | - | - |
| 1788340634 | 18.33° C | 82% | 994.4 hPa | - | - | - | - |
| 1788339855 | 18.33° C | 83% | 994.4 hPa | - | - | - | - |
| 1788339035 | 17.78° C | 84% | 994.4 hPa | - | - | - | - |
| 1788338260 | 17.78° C | 85% | 994.3 hPa | - | - | - | - |
| 1788337384 | 17.22° C | 87% | 994.2 hPa | - | - | - | - |
| 1788336630 | 16.67° C | 88% | 994.2 hPa | - | - | - | - |
| 1788335910 | 16.67° C | 89% | 994.2 hPa | - | - | - | - |
| 1788335150 | 16.67° C | 89% | 994 hPa | - | - | - | - |
| 1788334328 | 16.67° C | 88% | 993.9 hPa | - | - | - | - |
| 1788333500 | 17.22° C | 88% | 993.7 hPa | - | - | - | - |
* Rain since midnight (hover to see other rain measurements)
** Current wind speed in m/s (hover to see current wind gust speed)